Temperature
22 22 22 22 22 21 21 21 21 21 21 21 20 20 20 20 20 20 20 20 19 19 19 19 19 19 19 18 18 18 18 18 18 18 18 18 18 17 17 18 18 17 18
23 22 22 22 22 21 21 21 21 21 20 20 20 20 20 20 20 20 20 19 19 19 19 19 19 19 19 19 19 19 18 18 18 18 18 18 18 18 18 18 18 18 18
24 23 22 22 22 21 21 21 21 20 20 20 20 20 20 20 20 20 20 20 19 19 19 19 19 19 19 19 19 19 19 18 18 18 18 18 18 18 18 18 18 18 18
24 23 23 22 22 21 21 21 20 20 20 20 20 20 20 20 20 20 20 20 20 20 20 20 20 20 19 19 19 19 19 18 18 18 18 18 18 18 18 18 18 18 18
24 23 23 22 22 21 21 21 21 20 20 20 20 20 20 20 20 20 20 20 20 20 20 20 20 20 20 20 19 19 18 18 18 18 18 18 18 18 18 18 18 18 18
24 23 23 22 22 22 21 21 21 21 20 20 20 20 20 20 20 20 20 20 20 20 20 20 20 20 20 20 19 19 18 18 18 18 18 18 18 18 18 18 18 18 18
24 23 23 22 22 22 21 21 21 21 20 20 20 20 20 20 20 20 20 20 20 20 20 20 20 20 20 20 20 19 18 18 18 18 18 18 18 18 18 18 18 18 18
24 23 23 22 22 22 22 21 21 21 21 20 20 20 20 20 20 20 20 20 20 20 20 20 20 20 20 20 20 19 19 18 18 18 18 18 18 18 19 19 18 18 18
24 24 23 23 22 22 22 21 21 21 21 20 20 20 20 20 20 20 20 20 20 20 20 20 20 20 20 20 20 19 19 18 18 18 18 18 18 18 18 19 19 18 18
24 24 23 23 23 22 22 22 21 21 21 21 20 20 20 20 20 20 20 20 20 20 20 20 20 20 20 20 20 19 19 19 18 18 18 18 18 18 18 18 19 19 18
23 23 23 23 23 22 22 22 21 21 21 21 20 20 20 20 20 20 20 19 19 19 19 19 19 19 19 19 19 19 19 19 19 18 18 18 18 18 18 18 18 19 19
22 22 22 22 22 22 22 21 21 21 21 20 20 20 20 20 20 19 19 19 19 19 19 19 19 19 19 19 19 19 19 19 19 19 18 18 18 18 18 18 18 18 19
22 22 22 22 22 21 21 21 20 20 20 20 20 20 19 19 19 19 19 18 18 18 18 18 18 18 18 19 19 19 19 19 19 19 19 18 18 18 18 18 18 18 18
22 22 22 21 21 21 21 20 20 20 20 19 19 19 19 19 19 19 18 18 18 18 18 18 18 18 18 18 18 18 18 19 19 19 19 18 18 18 18 18 18 18 18
21 21 21 20 20 20 20 19 19 19 19 19 19 19 19 18 18 18 18 18 18 18 17 17 17 17 18 18 18 18 18 18 18 18 18 18 18 18 18 17 17 18 18
21 21 20 20 20 20 19 19 19 19 19 18 18 18 18 18 18 18 18 18 18 18 17 17 17 17 17 17 17 18 18 18 18 18 18 18 18 18 18 17 17 17 18
20 20 20 19 20 20 19 19 19 19 18 18 18 18 18 18 18 18 17 18 18 17 17 17 17 17 17 17 17 17 17 17 18 18 18 18 18 18 18 18 17 17 18
20 20 20 20 19 19 19 19 18 18 18 18 18 18 18 17 17 17 17 17 17 17 17 17 17 17 17 17 17 17 17 17 17 17 17 18 18 18 18 18 17 17 17
20 20 19 19 19 19 19 18 18 18 18 17 17 17 17 17 17 17 17 17 17 17 17 16 16 16 16 16 16 16 17 17 17 17 17 17 18 18 18 18 18 17 17
19 19 19 19 19 19 18 18 18 18 17 17 17 17 17 17 17 17 17 17 16 16 16 16 16 16 16 16 16 16 16 17 17 17 17 17 17 17 18 18 17 17 17
19 19 19 19 19 18 18 18 17 17 17 17 16 16 16 16 16 16 16 16 16 16 16 15 15 16 16 16 15 15 16 16 16 17 17 17 17 17 17 18 17 17 17
19 19 19 19 19 18 18 18 17 17 17 16 16 16 16 15 15 15 15 15 15 15 15 15 15 15 15 15 15 15 15 16 16 17 17 17 17 17 17 17 17 17 17
19 19 19 19 18 18 18 17 17 17 16 16 16 15 15 15 15 14 14 14 14 15 14 14 14 14 14 15 14 14 15 15 16 17 17 17 17 17 17 17 17 17 17
19 19 19 18 18 18 17 17 17 16 16 15 15 15 15 15 14 14 14 14 14 14 14 14 14 14 14 14 14 14 14 15 15 16 17 17 17 17 17 18 17 17 17
19 19 19 18 18 17 17 16 16 16 15 15 14 14 14 14 14 14 13 14 14 14 14 14 14 14 14 14 14 14 14 14 15 15 16 17 17 17 17 17 18 18 17
19 19 18 18 17 17 16 16 15 15 15 14 14 14 14 13 13 13 13 13 13 13 13 13 13 13 13 14 14 13 14 14 14 15 15 16 17 17 17 17 17 17 17
Wind_Speed
11 14 22 22 22 22 21 20 20 20 20 20 20 20 20 20 20 20 19 19 18 17 16 15 15 14 14 15 16 17 17 18 18 19 18 17 16 17 18 18 18 17 19
16 19 23 23 23 22 21 20 20 20 19 19 19 19 19 19 19 18 18 17 17 16 15 15 14 14 14 14 15 15 16 17 18 18 18 16 15 16 17 17 17 16 19
20 19 22 23 23 23 22 21 20 20 19 19 18 18 17 17 17 17 16 16 16 15 15 14 14 13 13 14 14 14 14 15 16 17 16 14 13 15 17 17 18 18 18
19 18 20 23 23 23 22 21 20 19 19 18 18 17 17 16 16 15 15 15 15 14 14 14 13 13 12 12 12 12 12 13 14 14 12 12 13 16 18 18 17 17 17
15 17 21 24 23 23 22 21 20 19 19 18 18 17 17 16 15 15 14 14 14 14 14 13 13 12 12 11 11 11 10 10 11 10 10 11 14 17 18 17 17 16 17
14 15 20 23 23 22 21 20 20 19 19 18 17 17 17 16 15 14 14 13 13 13 13 13 12 12 11 11 10 10 9 9 8 6 10 13 15 17 18 17 17 16 16
14 13 18 22 22 21 20 20 19 18 18 17 17 16 16 16 15 14 14 13 13 13 13 12 12 12 11 10 10 9 8 8 6 5 10 14 16 19 18 18 17 17 16
16 13 16 21 21 21 20 19 18 17 17 17 16 16 15 15 14 14 14 14 14 14 14 13 13 12 12 11 10 9 8 7 6 6 10 15 18 20 20 19 18 17 17
14 12 11 16 18 19 19 18 17 17 16 16 15 15 15 14 14 14 14 14 14 14 14 14 14 13 13 12 12 11 10 9 5 4 8 13 20 22 21 20 19 18 17
11 11 9 11 13 14 15 17 17 16 16 15 15 15 15 14 14 14 15 15 15 15 15 15 15 15 14 14 13 13 12 10 8 6 7 12 21 23 22 21 21 19 18
11 8 8 8 9 11 12 15 16 16 16 15 15 15 15 13 13 13 15 16 17 17 17 17 17 16 16 15 15 14 13 10 9 8 9 14 21 24 24 23 22 21 20
12 10 8 9 8 10 11 11 11 12 12 13 12 13 12 11 12 12 14 17 18 18 19 19 18 17 16 13 15 16 12 12 10 9 11 16 22 25 25 25 24 24 23
12 11 10 9 8 8 5 8 7 8 9 10 11 11 11 10 10 11 10 13 16 18 16 17 18 15 14 12 11 11 12 12 11 12 13 16 21 26 27 27 26 25 25
10 10 10 9 8 7 5 5 5 5 6 7 10 12 9 6 5 6 6 8 10 12 11 11 10 13 13 14 13 12 13 13 13 13 14 17 20 26 28 28 27 25 25
8 8 7 7 7 6 5 3 4 3 4 6 7 9 9 5 5 4 3 5 7 9 9 7 8 8 9 10 12 12 11 14 15 14 13 16 19 24 28 29 28 27 26
7 8 7 6 5 6 5 3 2 2 3 3 3 5 7 5 3 2 2 2 3 6 8 8 8 8 8 8 10 10 10 12 14 15 15 16 19 21 25 27 27 27 27
6 7 7 7 5 6 5 3 2 3 3 2 2 2 3 3 3 2 2 3 3 6 7 6 7 7 8 9 10 11 9 10 11 14 16 15 17 22 26 27 28 28 27
7 7 6 6 5 5 4 3 2 3 3 2 2 2 2 2 1 1 1 3 3 5 4 4 5 6 7 7 7 8 8 7 9 11 13 15 16 17 23 28 28 28 28
6 7 6 5 5 5 4 3 3 3 2 1 1 2 2 1 1 0 1 2 3 2 3 4 3 4 5 6 7 7 7 8 8 9 9 12 15 17 18 23 28 29 29
6 6 7 6 6 5 4 4 3 3 2 1 1 1 1 1 0 0 1 2 2 2 3 3 4 4 5 5 7 8 7 8 7 8 10 9 12 17 19 19 20 24 28
6 6 6 6 4 3 3 2 1 1 1 1 1 1 2 2 2 1 1 2 2 2 3 3 3 5 5 4 4 5 6 7 8 8 8 8 10 12 16 18 17 17 18
6 6 5 5 4 4 3 2 2 1 1 1 1 1 2 3 3 2 2 3 3 2 3 3 3 3 3 4 3 3 3 4 6 9 7 8 10 8 10 14 15 16 16
7 7 7 6 6 5 4 2 2 2 2 2 2 2 3 4 4 4 4 4 3 3 3 3 2 2 3 3 3 3 3 4 2 3 6 8 9 9 9 7 12 16 18
8 8 7 7 6 5 4 3 3 2 2 3 2 3 4 4 5 6 5 5 5 4 3 4 3 3 3 3 2 2 3 2 2 2 3 4 7 8 9 9 10 11 16
7 6 5 5 4 4 4 4 3 3 3 3 2 3 4 5 5 5 5 5 5 4 4 4 3 3 3 3 2 2 3 3 3 3 3 3 2 4 6 7 8 8 12
3 3 4 4 3 3 4 4 4 4 4 3 4 4 4 4 4 5 4 4 5 4 5 5 4 4 3 3 3 2 2 2 2 2 4 3 3 3 3 4 6 7 9
Wind_Direction
153 159 152 145 139 136 133 129 125 122 120 119 117 117 116 117 117 119 122 125 126 127 126 125 122 119 117 116 116 117 119 119 121 121 120 119 119 121 119 117 114 114 116
151 156 152 147 143 141 138 135 132 129 128 126 125 123 123 123 124 125 126 128 130 130 130 128 126 124 122 121 122 123 125 125 125 124 121 117 119 125 123 120 119 122 120
146 152 151 147 145 144 143 141 138 136 135 134 133 131 131 131 132 132 133 134 134 134 134 133 131 130 129 128 129 130 130 130 129 125 121 116 117 126 129 125 124 124 124
145 147 149 148 146 146 146 145 143 142 141 141 140 140 139 140 141 141 141 141 141 141 142 140 139 138 137 137 137 137 137 138 137 132 129 129 124 128 131 130 130 129 129
140 144 150 148 147 148 149 149 149 148 148 148 148 148 148 149 150 149 149 149 148 148 148 149 148 147 148 148 148 147 148 150 152 147 149 144 134 137 137 137 137 136 135
137 141 149 148 148 149 150 151 154 155 155 155 155 155 155 157 158 157 158 157 156 157 156 156 157 157 159 160 161 162 162 165 166 158 156 153 148 147 146 146 145 144 143
136 139 148 148 148 150 151 154 157 159 159 160 160 161 162 164 165 166 167 168 167 166 166 166 167 168 171 175 177 179 182 183 177 164 164 165 162 157 155 154 154 153 152
141 140 147 149 150 152 155 158 160 162 163 164 166 167 169 172 174 174 175 177 178 177 176 177 179 181 183 188 193 197 201 204 192 181 178 177 174 166 163 161 160 161 160
141 141 143 150 153 157 159 162 164 166 168 170 172 174 176 179 181 182 184 187 189 189 189 188 190 192 194 198 204 210 214 217 215 203 192 185 182 175 171 169 168 169 169
138 144 143 147 152 157 162 166 169 172 174 177 180 182 184 187 190 193 194 198 200 200 199 199 200 201 204 207 212 219 224 226 224 221 208 196 189 182 178 177 175 175 176
140 147 150 150 152 156 162 173 176 180 183 185 188 190 192 196 199 204 206 208 210 210 210 209 208 209 210 215 219 224 230 232 226 221 214 208 197 191 185 183 182 182 182
150 159 164 165 163 164 175 177 182 187 190 192 195 197 196 199 206 214 219 220 220 219 219 217 214 216 216 218 224 227 229 231 233 230 221 213 205 201 193 189 188 187 188
159 166 170 175 171 175 180 171 186 193 195 201 205 206 204 206 214 224 225 230 230 227 225 223 219 218 217 214 219 224 227 228 233 235 230 221 212 208 203 196 193 192 192
150 163 163 168 168 175 167 169 183 194 196 203 212 213 208 211 216 222 221 225 223 223 220 220 218 218 220 217 217 223 227 227 230 231 233 232 220 212 208 202 198 197 197
135 144 152 145 151 151 146 159 164 173 184 200 204 211 206 206 216 221 224 229 226 223 219 217 218 218 221 223 225 226 227 226 229 230 232 234 225 216 212 208 204 202 202
113 125 121 124 133 127 123 133 137 129 142 151 180 197 198 203 207 218 237 238 236 233 230 222 220 221 223 223 227 228 229 228 228 229 229 232 228 219 215 213 210 208 209
102 110 124 122 112 106 106 111 110 106 106 109 119 135 161 175 194 204 236 247 250 252 245 235 230 225 226 228 228 228 225 224 225 227 227 225 224 218 213 212 213 213 213
96 96 96 105 98 97 99 101 84 89 101 108 102 101 104 115 138 163 262 273 272 270 255 248 238 232 231 227 229 234 231 225 226 227 225 220 217 217 216 215 217 218 218
92 94 89 92 89 80 74 70 66 67 74 91 99 108 104 86 69 117 274 282 294 285 273 268 253 233 236 233 234 234 233 230 230 231 226 220 216 215 215 219 220 221 222
98 96 93 84 81 78 66 58 49 42 32 37 59 122 129 124 86 62 261 279 295 303 293 277 262 254 245 239 247 247 238 232 227 227 229 224 219 219 218 218 220 224 223
107 104 104 103 97 92 77 73 58 359 326 329 279 237 211 211 213 214 267 282 280 278 282 290 279 266 257 242 246 259 253 237 233 232 229 222 220 220 215 215 214 215 219
141 140 139 137 136 133 138 150 164 196 257 262 299 305 279 254 241 229 236 261 267 268 289 296 290 272 264 233 215 230 258 264 242 234 226 223 224 221 217 216 211 211 213
169 173 169 170 165 163 156 127 80 51 22 5 339 306 287 267 255 248 240 239 245 237 254 265 268 273 278 259 211 202 211 229 262 258 234 229 221 219 218 211 210 211 211
194 187 181 181 181 180 159 145 149 167 225 243 249 261 278 268 260 254 244 235 235 229 233 248 239 242 258 276 260 235 238 221 218 279 285 244 228 221 215 215 212 208 207
198 189 187 182 188 185 172 170 178 206 225 248 267 286 292 288 275 263 249 239 236 229 227 235 237 230 231 238 247 260 259 246 223 224 260 272 261 237 223 213 204 201 202
164 155 166 169 198 202 195 195 198 218 237 257 274 281 288 289 288 278 262 249 241 235 232 230 229 228 232 238 233 219 224 229 227 212 237 252 254 256 236 217 203 196 194
Height
1514 1518 1521 1524 1526 1528 1530 1531 1533 1535 1536 1538 1540 1541 1543 1544 1545 1546 1548 1549 1550 1550 1551 1552 1552 1553 1554 1555 1555 1555 1556 1556 1556 1557 1558 1558 1559 1560 1560 1561 1562 1563 1564
1512 1517 1521 1524 1526 1528 1530 1532 1534 1535 1537 1539 1540 1542 1543 1544 1546 1547 1548 1549 1550 1551 1552 1552 1553 1554 1555 1555 1556 1557 1557 1557 1558 1559 1560 1560 1561 1562 1562 1563 1564 1565 1566
1512 1516 1520 1524 1526 1529 1530 1532 1534 1536 1537 1539 1541 1542 1543 1545 1546 1547 1548 1549 1550 1551 1552 1553 1554 1554 1555 1556 1557 1558 1558 1559 1560 1560 1561 1562 1563 1563 1564 1565 1566 1567 1568
1513 1516 1520 1524 1527 1529 1531 1533 1534 1536 1538 1539 1541 1542 1543 1545 1546 1547 1548 1550 1551 1551 1552 1553 1554 1555 1556 1557 1558 1558 1559 1560 1561 1561 1562 1563 1564 1565 1565 1566 1567 1568 1569
1514 1517 1521 1524 1527 1529 1531 1533 1535 1536 1538 1539 1541 1542 1543 1545 1546 1547 1548 1550 1551 1552 1553 1554 1555 1556 1556 1557 1558 1559 1560 1561 1561 1562 1563 1564 1565 1566 1566 1567 1568 1569 1570
1516 1519 1522 1525 1528 1530 1532 1533 1535 1537 1538 1539 1541 1542 1543 1545 1546 1547 1548 1550 1551 1552 1553 1554 1555 1556 1557 1558 1558 1559 1560 1561 1562 1562 1563 1564 1565 1566 1567 1568 1569 1570 1571
1516 1520 1523 1526 1528 1530 1532 1534 1536 1537 1538 1539 1541 1542 1543 1544 1546 1547 1548 1549 1550 1552 1553 1554 1555 1556 1557 1558 1558 1559 1560 1561 1562 1562 1563 1564 1566 1567 1568 1568 1569 1571 1572
1517 1520 1524 1527 1529 1531 1533 1534 1536 1537 1538 1539 1540 1542 1543 1544 1545 1546 1548 1549 1550 1551 1552 1553 1554 1555 1556 1557 1558 1559 1560 1561 1561 1562 1563 1564 1566 1567 1568 1569 1570 1571 1572
1519 1521 1524 1527 1529 1531 1533 1534 1535 1537 1538 1539 1540 1541 1542 1543 1544 1546 1547 1548 1549 1550 1551 1552 1553 1554 1555 1556 1557 1558 1559 1560 1561 1561 1562 1563 1565 1566 1567 1568 1569 1570 1572
1521 1523 1525 1527 1529 1531 1533 1534 1535 1536 1538 1539 1540 1541 1542 1543 1544 1545 1546 1547 1548 1549 1550 1551 1552 1553 1554 1555 1556 1557 1558 1559 1559 1560 1561 1562 1564 1565 1567 1568 1569 1570 1571
1521 1524 1526 1527 1529 1531 1533 1534 1535 1536 1537 1538 1539 1540 1541 1541 1542 1543 1544 1545 1546 1547 1548 1548 1549 1550 1551 1552 1554 1555 1556 1557 1558 1559 1559 1561 1562 1564 1565 1567 1568 1569 1570
1522 1524 1526 1528 1529 1530 1532 1534 1535 1536 1537 1538 1538 1539 1539 1540 1541 1542 1542 1543 1544 1545 1545 1546 1547 1547 1548 1549 1550 1551 1552 1554 1555 1556 1557 1558 1560 1561 1563 1564 1566 1567 1568
1522 1524 1526 1528 1529 1531 1532 1533 1534 1535 1536 1537 1537 1538 1538 1538 1539 1539 1540 1541 1541 1542 1542 1543 1543 1544 1544 1545 1546 1548 1549 1550 1551 1553 1554 1556 1557 1558 1560 1562 1564 1565 1566
1521 1523 1525 1528 1529 1530 1531 1532 1533 1534 1534 1535 1536 1536 1536 1536 1536 1537 1537 1538 1538 1539 1539 1539 1539 1540 1540 1541 1542 1543 1545 1546 1547 1548 1550 1552 1553 1554 1556 1558 1560 1562 1564
1522 1523 1525 1526 1527 1529 1530 1531 1531 1532 1532 1533 1534 1534 1534 1534 1534 1534 1534 1535 1535 1535 1535 1535 1535 1536 1536 1537 1537 1539 1540 1541 1542 1544 1545 1547 1548 1550 1552 1554 1556 1558 1560
1521 1523 1524 1526 1527 1527 1528 1529 1529 1529 1530 1530 1531 1531 1531 1531 1531 1531 1531 1531 1530 1530 1530 1530 1530 1531 1531 1532 1532 1533 1535 1536 1537 1539 1540 1542 1543 1545 1547 1549 1551 1554 1556
1521 1522 1523 1524 1526 1526 1527 1527 1528 1528 1528 1528 1528 1528 1528 1528 1528 1527 1527 1526 1526 1525 1525 1524 1525 1525 1525 1526 1526 1527 1529 1530 1531 1533 1535 1536 1538 1540 1542 1544 1546 1548 1550
1521 1522 1523 1524 1525 1525 1526 1526 1526 1526 1526 1526 1526 1525 1525 1525 1524 1523 1523 1522 1521 1520 1519 1519 1518 1519 1519 1519 1520 1521 1522 1524 1525 1527 1528 1530 1532 1534 1536 1538 1541 1543 1545
1522 1522 1523 1524 1524 1525 1525 1525 1525 1525 1524 1524 1523 1522 1522 1521 1520 1519 1518 1517 1516 1515 1514 1513 1513 1513 1513 1513 1514 1514 1516 1517 1519 1520 1522 1524 1526 1528 1530 1532 1534 1537 1539
1523 1523 1523 1524 1524 1525 1524 1524 1524 1523 1523 1522 1521 1520 1519 1518 1517 1516 1514 1513 1512 1510 1509 1508 1507 1508 1507 1507 1508 1508 1509 1510 1511 1513 1515 1517 1519 1521 1523 1526 1528 1531 1533
1524 1524 1524 1524 1524 1524 1524 1523 1522 1521 1521 1520 1519 1518 1516 1515 1514 1512 1511 1510 1508 1506 1505 1503 1502 1502 1501 1501 1501 1501 1503 1504 1505 1507 1509 1511 1513 1515 1517 1519 1522 1525 1527
1523 1524 1524 1523 1523 1523 1522 1521 1520 1519 1518 1517 1516 1515 1513 1512 1511 1509 1508 1506 1504 1503 1501 1500 1499 1497 1497 1497 1496 1496 1497 1498 1498 1500 1502 1504 1507 1509 1511 1513 1516 1519 1522
1522 1522 1522 1522 1521 1520 1520 1519 1518 1517 1515 1514 1513 1511 1510 1508 1507 1506 1505 1503 1502 1500 1498 1497 1495 1495 1493 1492 1493 1494 1493 1492 1493 1495 1496 1498 1501 1503 1505 1508 1511 1514 1517
1520 1520 1520 1519 1519 1518 1517 1516 1515 1513 1512 1510 1509 1507 1506 1505 1503 1502 1501 1500 1498 1497 1495 1494 1492 1491 1490 1489 1488 1489 1490 1490 1491 1491 1492 1493 1496 1498 1500 1503 1506 1509 1512
1518 1518 1518 1517 1516 1515 1514 1513 1511 1510 1508 1506 1505 1503 1502 1500 1499 1498 1497 1496 1494 1493 1492 1491 1489 1488 1487 1486 1485 1485 1486 1487 1488 1489 1489 1489 1491 1493 1496 1498 1501 1505 1508
1517 1516 1516 1515 1514 1512 1511 1509 1508 1506 1504 1502 1500 1499 1497 1496 1495 1494 1492 1491 1490 1489 1488 1487 1486 1485 1484 1483 1482 1482 1483 1483 1484 1485 1485 1486 1487 1489 1492 1494 1497 1500 1503